Content
SEND FEEDBACK

Daily
Averages
Monthly
Summary
United States of America

MILAN, MICHIGAN


Home > North America > United States > Michigan
Elevation: 660 feet     Latitude: 42 05N     Longitude: 083 35W

WEATHER
 
SELECT A DAY
Number of Records: 205,162;   Date Range: 1/1/95 - 10/1/14
 
SHARE

PRINT THIS DATA

[ ← Previous Day ]
WEATHER ALMANAC - FEBRUARY 28, 2013
[ Next Day → ]
[ °C ]   °F
Weather ElementAverageHighLow
Temperature36.2 °F39.2 °F (12:04 pm)32 °F (11:53 pm)
Dewpoint29.5 °F32 °F (4:01 am)24.1 °F (11:53 pm)
Humidity77.1 %87 % (4:01 am)65 % (5:02 pm)
Barometer29.68 in29.96 in (11:53 pm)29.55 in (3:45 am)
Wind Speed12.1 mph23 mph (1:53 pm)
Wind Gust27.6 mph (1:53 pm)
Weather ElementAverage
Visibility6.7 mi
Wind DirectionNW (320.2 °)

Weather ElementTotal
Precipitation0.09 in
Heating Degree Days29.4 (Base 65)
Averaged from 41 records on February 28, 2013
WEATHER CONDITIONS BREAKOUT
WIND DIRECTION BREAKOUT
WEATHER BY HOUR - FEBRUARY 28, 2013
[ °C ]   °F
Local TimeTemperatureDewpointHumidityBarometerVisibilityWind DirectionWind SpeedGust SpeedPrecipitationEventsConditions
1:53 AM35.1 °F30.9 °F85 %29.56 in8.0 miSW (230°)6.9 mphOvercast
2:53 AM35.1 °F30.9 °F85 %29.56 in7.0 miSW (230°)5.8 mphOvercast
3:45 AM35.6 °F30.2 °F81 %29.55 in4.0 miSW (230°)5.8 mphOvercast
3:53 AM35.1 °F30.9 °F85 %29.56 in3.0 miSW (230°)5.8 mph0.00 inSnowLight Snow
4:01 AM35.6 °F32.0 °F87 %29.55 in2.0 miWSW (240°)5.8 mph0.00 inSnowLight Snow
4:24 AM35.6 °F32.0 °F87 %29.55 in3.0 miWNW (290°)6.9 mph0.00 inSnowLight Snow
4:36 AM35.6 °F32.0 °F87 %29.55 in2.5 miWNW (300°)5.8 mph0.00 inSnowLight Snow
4:53 AM35.1 °F30.9 °F85 %29.57 in3.0 miWNW (300°)6.9 mph0.00 inSnowLight Snow
5:07 AM35.6 °F30.2 °F81 %29.56 in2.0 miNW (310°)5.8 mph0.00 inSnowLight Snow
5:30 AM35.6 °F30.2 °F81 %29.57 in2.0 miNW (310°)8.1 mph0.01 inSnowLight Snow
5:45 AM35.6 °F30.2 °F81 %29.57 in4.0 miNW (310°)10.4 mph0.01 inSnowLight Snow
5:53 AM35.1 °F30.9 °F85 %29.58 in4.0 miNW (320°)9.2 mph0.01 inSnowLight Snow
6:20 AM35.6 °F30.2 °F81 %29.58 in4.0 miNW (320°)11.5 mph0.01 inSnowLight Snow
6:53 AM36.0 °F30.9 °F82 %29.60 in3.0 miNW (320°)10.4 mph0.01 inSnowLight Snow
6:57 AM35.6 °F30.2 °F81 %29.59 in2.5 miNW (320°)12.7 mph0.00 inSnowLight Snow
7:23 AM35.6 °F30.2 °F81 %29.60 in1.8 miNW (320°)11.5 mph0.01 inSnowLight Snow
7:29 AM35.6 °F30.2 °F81 %29.60 in3.0 miNNW (330°)12.7 mph0.01 inSnowLight Snow
7:36 AM35.6 °F30.2 °F81 %29.60 in4.0 miNNW (330°)13.8 mph0.01 inSnowLight Snow
7:53 AM36.0 °F30.9 °F82 %29.62 in3.0 miNNW (330°)11.5 mph0.01 inSnowLight Snow
8:40 AM35.6 °F30.2 °F81 %29.63 in10.0 miNW (320°)13.8 mph0.00 inOvercast
8:53 AM36.0 °F30.9 °F82 %29.65 in9.0 miNNW (330°)13.8 mph0.00 inOvercast
9:53 AM37.9 °F30.9 °F76 %29.67 in10.0 miNNW (330°)13.8 mph0.00 inOvercast
10:53 AM39.0 °F30.0 °F70 %29.69 in10.0 miNNW (340°)15.0 mph23.0 mphMostly Cloudy
11:53 AM39.0 °F30.0 °F70 %29.72 in10.0 miNNW (340°)13.8 mph0.00 inOvercast
12:04 PM39.2 °F30.2 °F70 %29.71 in10.0 miNNW (340°)18.4 mph25.3 mphOvercast
12:18 PM37.4 °F30.2 °F75 %29.71 in5.0 miNorth (350°)17.3 mph26.5 mph0.00 inSnowLight Snow
12:31 PM39.2 °F30.2 °F70 %29.72 in9.0 miNorth (350°)13.8 mph0.00 inOvercast
12:41 PM37.4 °F30.2 °F75 %29.72 in10.0 miNorth (350°)18.4 mph25.3 mph0.00 inRainLight Rain
12:53 PM37.9 °F28.9 °F70 %29.73 in10.0 miNorth (350°)16.1 mph0.00 inOvercast
1:53 PM37.9 °F28.0 °F68 %29.75 in10.0 miNNW (340°)23.0 mph27.6 mphOvercast
2:16 PM37.4 °F28.4 °F70 %29.75 in10.0 miNNW (340°)18.4 mph23.0 mphOvercast
2:31 PM37.4 °F28.4 °F70 %29.75 in6.0 miNorth (350°)17.3 mph0.00 inHaze
2:53 PM37.0 °F28.9 °F73 %29.78 in10.0 miNNW (340°)16.1 mph0.00 inOvercast
4:53 PM37.0 °F27.0 °F67 %29.83 in10.0 miNNW (330°)15.0 mph0.00 inOvercast
5:02 PM37.4 °F26.6 °F65 %29.82 in10.0 miNorth (350°)12.7 mphOvercast
5:25 PM35.6 °F26.6 °F70 %29.83 in10.0 miNorth (350°)13.8 mph20.7 mphOvercast
5:53 PM36.0 °F26.1 °F67 %29.86 in10.0 miNorth (350°)13.8 mphOvercast
6:53 PM35.1 °F27.0 °F72 %29.89 in10.0 miNorth (350°)8.1 mph0.00 inOvercast
7:53 PM34.0 °F26.1 °F73 %29.92 in10.0 miNorth (350°)13.8 mph0.00 inOvercast
8:53 PM34.0 °F27.0 °F75 %29.94 in10.0 miNorth (350°)8.1 mphOvercast
11:53 PM32.0 °F24.1 °F73 %29.96 in10.0 miNorth (360°)13.8 mphOvercast
Hourly data recorded from KYIP, located miles away from Milan, Michigan







STORIES FROM OUR PARTNERS